EW5657 Weather Reports


Display with metric or nautical units.
time (UTC)temp
F
wind
direction
speed
MPH
gust
MPH
rain 1hr
in
rain 24hr
in
rain mn
in
humidity
%
barometer
mb
20260902150829 54 327 2.0 7.0 0.00 0.00 0.00 69 1011.3
20260902150328 54 318 3.0 5.0 0.00 0.00 0.00 69 1011.3
20260902145827 54 320 2.0 6.0 0.00 0.00 0.00 69 1011.3
20260902145328 54 343 2.0 6.0 0.00 0.00 0.00 69 1011.3
20260902144833 54 341 3.0 9.0 0.00 0.00 0.00 69 1011.3
20260902144827 54 335 3.0 9.0 0.00 0.00 0.00 69 1011.4
20260902143829 54 343 2.0 8.0 0.00 0.00 0.00 68 1011.3
20260902143335 54 327 3.0 6.0 0.00 0.00 0.00 68 1011.3
20260902143329 54 328 2.0 6.0 0.00 0.00 0.00 68 1011.2
20260902142951 54 312 2.0 5.0 0.00 0.00 0.00 68 1011.4
20260902141823 54 314 2.0 8.0 0.00 0.00 0.00 68 1011.5
20260902141323 54 314 3.0 8.0 0.00 0.00 0.00 69 1011.5
20260902140822 54 333 2.0 6.0 0.00 0.00 0.00 69 1011.5
20260902140323 54 335 1.0 5.0 0.00 0.00 0.00 69 1011.5
20260902135819 54 334 1.0 5.0 0.00 0.00 0.00 68 1011.5
20260902135321 54 334 2.0 5.0 0.00 0.00 0.00 68 1011.6
20260902134819 54 334 2.0 5.0 0.00 0.00 0.00 67 1011.7
20260902134320 55 334 2.0 5.0 0.00 0.00 0.00 66 1011.6
20260902133820 55 333 2.0 6.0 0.00 0.00 0.00 66 1011.7
20260902133319 55 333 2.0 6.0 0.00 0.00 0.00 65 1011.7
20260902132817 55 330 2.0 8.0 0.00 0.00 0.00 64 1011.7
20260902132318 55 329 2.0 8.0 0.00 0.00 0.00 63 1011.8
20260902131814 55 308 2.0 4.0 0.00 0.00 0.00 63 1011.9
20260902131315 56 307 2.0 5.0 0.00 0.00 0.00 63 1012.0
20260902130815 56 307 3.0 7.0 0.00 0.00 0.00 63 1012.1
20260902130316 56 306 3.0 7.0 0.00 0.00 0.00 62 1012.1
20260902125814 56 322 3.0 7.0 0.00 0.00 0.00 62 1012.1
20260902125316 56 340 4.0 12.0 0.00 0.00 0.00 61 1012.2
20260902124816 56 314 4.0 12.0 0.00 0.00 0.00 61 1012.3
20260902124315 56 337 4.0 8.0 0.00 0.00 0.00 61 1012.3
20260902123814 56 335 5.0 9.0 0.00 0.00 0.00 61 1012.3
20260902123315 56 322 5.0 11.0 0.00 0.00 0.00 60 1012.4
20260902122812 56 303 5.0 11.0 0.00 0.00 0.00 60 1012.4
20260902122312 56 339 5.0 11.0 0.00 0.00 0.00 60 1012.5
20260902121813 56 321 5.0 11.0 0.00 0.00 0.00 60 1012.6
20260902121319 56 316 5.0 12.0 0.00 0.00 0.00 60 1012.6
20260902121313 57 325 5.0 11.0 0.00 0.00 0.00 60 1012.6
20260902120314 57 308 5.0 12.0 0.00 0.00 0.00 60 1012.6
20260902115813 56 300 4.0 11.0 0.00 0.00 0.00 61 1012.7
20260902115314 57 331 4.0 8.0 0.00 0.00 0.00 60 1012.7
20260902114813 57 330 5.0 10.0 0.00 0.00 0.00 60 1012.7
20260902114314 57 302 4.0 14.0 0.00 0.00 0.00 60 1012.7
20260902113811 57 312 4.0 14.0 0.00 0.00 0.00 60 1012.6
20260902113316 57 322 5.0 9.0 0.00 0.00 0.00 60 1012.7
20260902113310 57 316 5.0 10.0 0.00 0.00 0.00 60 1012.6
20260902112940 57 305 6.0 14.0 0.00 0.00 0.00 61 1012.8
20260902112500 58 299 5.0 14.0 0.00 0.00 0.00 61 1012.7
20260902111311 58 337 5.0 14.0 0.00 0.00 0.00 62 1012.8
20260902110809 58 303 7.0 15.0 0.00 0.00 0.00 62 1012.8
20260902110310 58 299 7.0 15.0 0.00 0.00 0.00 62 1012.8
20260902105808 58 319 5.0 14.0 0.00 0.00 0.00 64 1012.8
20260902105308 58 318 3.0 14.0 0.00 0.00 0.00 67 1012.8
20260902104810 57 341 2.0 11.0 0.00 0.00 0.00 68 1012.7
20260902104314 57 270 1.0 6.0 0.00 0.00 0.00 69 1012.7
20260902104308 57 296 1.0 11.0 0.00 0.00 0.00 69 1012.7
20260902103311 57 272 1.0 6.0 0.00 0.00 0.00 70 1012.7
20260902102815 57 165 0.0 0.0 0.00 0.00 0.00 71 1012.7
20260902102809 57 166 0.0 2.0 0.00 0.00 0.00 71 1012.8
20260902101814 57 165 0.0 0.0 0.00 0.00 0.00 71 1012.7
20260902101808 57 165 0.0 0.0 0.00 0.00 0.00 71 1012.7
20260902101433 57 165 0.0 0.0 0.00 0.00 0.00 72 1012.8
20260902100308 57 165 0.0 0.0 0.00 0.00 0.00 71 1012.7
20260902095808 57 165 0.0 0.0 0.00 0.00 0.00 71 1012.7
20260902095307 57 165 0.0 0.0 0.00 0.00 0.00 71 1012.6
20260902094806 56 165 0.0 0.0 0.00 0.00 0.00 71 1012.6
20260902094307 56 165 0.0 0.0 0.00 0.00 0.00 71 1012.5
20260902093812 56 165 0.0 1.0 0.00 0.00 0.00 71 1012.3
20260902093806 56 165 0.0 1.0 0.00 0.00 0.00 71 1012.5
20260902093305 56 165 0.0 1.0 0.00 0.00 0.00 71 1012.4
20260902092306 56 165 0.0 0.0 0.00 0.00 0.00 71 1012.3
20260902091804 56 165 0.0 0.0 0.00 0.00 0.00 71 1012.3
20260902091304 56 165 0.0 0.0 0.00 0.00 0.00 70 1012.2
20260902090807 56 165 0.0 0.0 0.00 0.00 0.00 70 1012.2
20260902090310 56 165 0.0 0.0 0.00 0.00 0.00 69 1012.2
20260902090305 56 165 0.0 1.0 0.00 0.00 0.00 70 1012.1
20260902085805 56 165 0.0 1.0 0.00 0.00 0.00 69 1012.1
20260902084804 56 165 0.0 1.0 0.00 0.00 0.00 69 1012.2
20260902084304 56 165 0.0 1.0 0.00 0.00 0.00 69 1012.1
20260902083804 57 165 0.0 1.0 0.00 0.00 0.00 69 1012.0
20260902083304 57 165 0.0 0.0 0.00 0.00 0.00 69 1012.1
20260902082806 57 165 0.0 0.0 0.00 0.00 0.00 68 1012.1
20260902082309 57 165 0.0 1.0 0.00 0.00 0.00 68 1012.1
20260902081811 57 165 0.0 1.0 0.00 0.00 0.00 67 1012.1
20260902081806 57 165 0.0 1.0 0.00 0.00 0.00 68 1012.1
20260902080811 58 165 1.0 2.0 0.00 0.00 0.00 66 1011.9
20260902080806 57 165 0.0 2.0 0.00 0.00 0.00 67 1012.1
20260902075806 58 165 0.0 2.0 0.00 0.00 0.00 66 1011.9
20260902075306 58 165 0.0 2.0 0.00 0.00 0.00 66 1011.9
20260902074805 58 165 0.0 3.0 0.00 0.00 0.00 65 1011.9
20260902074304 58 165 0.0 3.0 0.00 0.00 0.00 65 1011.9
20260902073804 58 165 0.0 3.0 0.00 0.00 0.00 65 1011.9
20260902073303 58 165 1.0 3.0 0.00 0.00 0.00 65 1011.9
20260902072804 58 165 1.0 3.0 0.00 0.00 0.00 65 1011.9
20260902072310 58 166 1.0 4.0 0.00 0.00 0.00 64 1011.9
20260902071311 59 185 1.0 6.0 0.00 0.00 0.00 64 1011.9
20260902071306 59 185 1.0 4.0 0.00 0.00 0.00 65 1011.9
20260902070304 59 185 1.0 6.0 0.00 0.00 0.00 64 1012.0
20260902065802 59 190 1.0 4.0 0.00 0.00 0.00 64 1012.0
20260902065301 60 191 2.0 4.0 0.00 0.00 0.00 63 1012.0
20260902064802 60 158 2.0 8.0 0.00 0.00 0.00 63 1012.0
20260902064303 60 160 2.0 8.0 0.00 0.00 0.00 63 1012.0
20260902063803 60 185 1.0 8.0 0.00 0.00 0.00 61 1012.1
20260902063307 60 205 1.0 5.0 0.00 0.00 0.00 63 1012.2
20260902063303 60 222 1.0 6.0 0.00 0.00 0.00 62 1012.1
20260902062305 60 203 1.0 5.0 0.00 0.00 0.00 63 1012.3
20260902061804 60 193 2.0 8.0 0.00 0.00 0.00 64 1012.4
20260902061303 60 205 2.0 8.0 0.00 0.00 0.00 63 1012.4
20260902060802 60 207 2.0 8.0 0.00 0.00 0.00 65 1012.4
20260902060303 59 199 3.0 8.0 0.00 0.00 0.00 66 1012.6
20260902055801 59 205 3.0 8.0 0.00 0.00 0.00 66 1012.6
20260902055302 59 175 2.0 8.0 0.00 0.00 0.00 65 1012.6
20260902054932 60 199 2.0 8.0 0.00 0.00 0.00 62 1012.8
20260902054807 60 175 2.0 7.0 0.00 0.00 0.00 63 1012.7
20260902054801 60 192 2.0 7.0 0.00 0.00 0.00 64 1012.7
20260902053932 60 197 2.0 8.0 0.00 0.00 0.00 63 1012.8
20260902052803 60 211 2.0 6.0 0.00 0.00 0.00 64 1012.9
20260902052311 60 150 2.0 7.0 0.00 0.00 0.00 63 1012.9
20260902052306 60 194 2.0 7.0 0.00 0.00 0.00 63 1013.0
20260902051930 60 212 3.0 9.0 0.00 0.00 0.00 64 1013.0
20260902051302 60 198 2.0 9.0 0.00 0.00 0.00 65 1013.0
20260902050303 60 222 2.0 8.0 0.00 0.00 0.00 64 1013.1
20260902045801 60 203 3.0 9.0 0.00 0.00 0.00 64 1013.1
20260902045301 60 175 2.0 9.0 0.00 0.00 0.00 65 1013.1
20260902044300 59 175 3.0 10.0 0.00 0.00 0.00 64 1013.1
20260902043801 59 226 2.0 9.0 0.00 0.00 0.00 63 1013.2
20260902043306 59 190 3.0 10.0 0.00 0.00 0.00 64 1013.2
20260902043302 59 204 3.0 10.0 0.00 0.00 0.00 64 1013.2
20260902042926 59 194 3.0 9.0 0.00 0.00 0.00 66 1013.3
20260902042403 59 199 3.0 8.0 0.00 0.00 0.00 64 1013.3
20260902041303 59 251 3.0 10.0 0.00 0.00 0.00 65 1013.3
20260902041257 59 189 3.0 10.0 0.00 0.00 0.00 65 1013.2
20260902040925 59 191 3.0 10.0 0.00 0.00 0.00 65 1013.3
20260902040424 59 180 3.0 10.0 0.00 0.00 0.00 65 1013.3
20260902035259 60 180 2.0 9.0 0.00 0.00 0.00 65 1013.4
20260902034755 59 219 3.0 8.0 0.00 0.00 0.00 65 1013.5
20260902034256 59 180 2.0 8.0 0.00 0.00 0.00 66 1013.5
20260902033758 59 247 3.0 9.0 0.00 0.00 0.00 67 1013.4
20260902033256 59 233 4.0 9.0 0.00 0.00 0.00 67 1013.4
20260902032754 59 197 3.0 9.0 0.00 0.00 0.00 65 1013.6
20260902032259 59 193 3.0 10.0 0.00 0.00 0.00 66 1013.7
20260902032255 59 193 3.0 10.0 0.00 0.00 0.00 67 1013.7
20260902031252 58 166 3.0 9.0 0.00 0.00 0.00 67 1014.0
20260902030753 58 175 4.0 9.0 0.00 0.00 0.00 66 1014.0
20260902030251 58 197 3.0 8.0 0.00 0.00 0.00 66 1014.2
20260902025753 58 229 2.0 8.0 0.00 0.00 0.00 68 1014.2
20260902025253 58 221 3.0 8.0 0.00 0.00 0.00 70 1014.3
20260902024753 58 185 3.0 8.0 0.00 0.00 0.00 69 1014.4
20260902024252 58 185 2.0 8.0 0.00 0.00 0.00 69 1014.7
20260902023753 58 175 2.0 8.0 0.00 0.00 0.00 69 1014.8
20260902023249 58 189 2.0 7.0 0.00 0.00 0.00 69 1014.9
20260902022751 58 175 2.0 5.0 0.00 0.00 0.00 68 1015.0
20260902022258 58 260 2.0 8.0 0.00 0.00 0.00 70 1015.1
20260902022249 58 218 1.0 4.0 0.00 0.00 0.00 69 1015.0
20260902021917 58 161 2.0 8.0 0.00 0.00 0.00 69 1015.2
20260902020753 58 249 2.0 8.0 0.00 0.00 0.00 69 1015.3
20260902020251 58 221 3.0 8.0 0.00 0.00 0.00 69 1015.3
20260902015751 58 196 2.0 8.0 0.00 0.00 0.00 69 1015.4
20260902015248 58 258 2.0 8.0 0.00 0.00 0.00 68 1015.4
20260902014748 58 207 2.0 8.0 0.00 0.00 0.00 68 1015.4
20260902014247 58 185 2.0 8.0 0.00 0.00 0.00 69 1015.5
20260902013747 58 170 2.0 6.0 0.00 0.00 0.00 69 1015.5
20260902013249 58 212 2.0 6.0 0.00 0.00 0.00 68 1015.5
20260902012749 58 193 2.0 8.0 0.00 0.00 0.00 68 1015.6
20260902012247 58 202 2.0 8.0 0.00 0.00 0.00 67 1015.8
20260902011747 58 175 2.0 8.0 0.00 0.00 0.00 68 1015.7
20260902011249 58 185 2.0 8.0 0.00 0.00 0.00 69 1015.8
20260902010748 58 216 2.0 6.0 0.00 0.00 0.00 68 1015.9
20260902010247 58 237 2.0 9.0 0.00 0.00 0.00 68 1015.9
20260902005747 58 230 2.0 9.0 0.00 0.00 0.00 68 1016.0
20260902005249 58 244 2.0 7.0 0.00 0.00 0.00 70 1016.0
20260902004747 58 227 2.0 7.0 0.00 0.00 0.00 70 1016.1
20260902004254 58 224 2.0 5.0 0.00 0.00 0.00 70 1016.2
20260902004249 58 221 1.0 5.0 0.00 0.00 0.00 70 1016.1
20260902003911 58 256 2.0 9.0 0.00 0.00 0.00 69 1016.2
20260902002748 58 260 3.0 9.0 0.00 0.00 0.00 69 1016.2
20260902002248 58 215 2.0 6.0 0.00 0.00 0.00 68 1016.2
20260902001747 58 204 1.0 6.0 0.00 0.00 0.00 69 1016.3
20260902001249 58 256 1.0 8.0 0.00 0.00 0.00 69 1016.3
20260902000753 58 180 2.0 8.0 0.00 0.00 0.00 70 1016.4
20260902000749 58 200 2.0 8.0 0.00 0.00 0.00 69 1016.4
20260902000245 58 214 2.0 8.0 0.00 0.00 0.00 70 1016.4
20260901235242 57 191 2.0 8.0 0.00 0.00 0.00 71 1016.4
20260901234743 57 219 2.0 8.0 0.00 0.00 0.00 70 1016.5
20260901234245 57 180 1.0 6.0 0.00 0.00 0.00 71 1016.5
20260901233742 57 202 1.0 7.0 0.00 0.00 0.00 72 1016.5
20260901233246 57 227 2.0 10.0 0.00 0.00 0.00 72 1016.5
20260901233240 57 199 1.0 7.0 0.00 0.00 0.00 72 1016.5
20260901232905 57 253 1.0 8.0 0.00 0.00 0.00 72 1016.4
20260901232237 57 224 2.0 10.0 0.00 0.00 0.00 72 1016.5
20260901231235 57 205 1.0 7.0 0.00 0.00 0.00 73 1016.5
20260901230735 57 280 0.0 3.0 0.00 0.00 0.00 73 1016.4
20260901230235 57 286 0.0 3.0 0.00 0.00 0.00 74 1016.5
20260901225734 56 306 1.0 7.0 0.00 0.00 0.00 74 1016.5
20260901225239 56 210 1.0 6.0 0.00 0.00 0.00 74 1016.5
20260901225233 56 264 1.0 7.0 0.00 0.00 0.00 73 1016.5
20260901224233 56 222 1.0 7.0 0.00 0.00 0.00 74 1016.4
20260901223733 56 220 1.0 7.0 0.00 0.00 0.00 74 1016.4
20260901223236 56 262 1.0 9.0 0.00 0.00 0.00 74 1016.5
20260901223230 56 269 1.0 9.0 0.00 0.00 0.00 74 1016.5
20260901222230 56 205 1.0 6.0 0.00 0.00 0.00 75 1016.4
20260901221731 56 238 1.0 6.0 0.00 0.00 0.00 75 1016.4
20260901221232 56 203 1.0 7.0 0.00 0.00 0.00 75 1016.2
20260901220731 55 230 2.0 11.0 0.00 0.00 0.00 76 1016.2
20260901220231 55 235 1.0 11.0 0.00 0.00 0.00 76 1016.1
20260901215732 55 197 1.0 7.0 0.00 0.00 0.00 77 1016.1
20260901214732 55 262 1.0 8.0 0.00 0.00 0.00 78 1015.9
20260901214229 55 193 1.0 8.0 0.00 0.00 0.00 78 1015.8
20260901213729 55 241 0.0 5.0 0.00 0.00 0.00 78 1015.8
20260901213229 55 194 1.0 9.0 0.00 0.00 0.00 78 1015.7
20260901212728 55 193 1.0 9.0 0.00 0.00 0.00 79 1015.6
20260901212230 55 224 0.0 6.0 0.00 0.00 0.00 80 1015.6
20260901211730 55 214 0.0 5.0 0.00 0.00 0.00 81 1015.7
20260901211230 55 252 0.0 5.0 0.00 0.00 0.00 81 1015.7
20260901210729 55 225 0.0 4.0 0.00 0.00 0.00 82 1015.6
20260901210227 55 226 0.0 5.0 0.00 0.00 0.00 82 1015.5
20260901205726 55 238 1.0 5.0 0.00 0.00 0.00 83 1015.5
20260901205226 55 258 0.0 5.0 0.00 0.00 0.00 83 1015.5
20260901204732 55 251 0.0 5.0 0.00 0.00 0.00 84 1015.4
20260901204726 55 232 0.0 5.0 0.00 0.00 0.00 83 1015.4
20260901203727 55 235 0.0 4.0 0.00 0.00 0.00 84 1015.3
20260901203227 55 198 0.0 4.0 0.00 0.00 0.00 84 1015.2
20260901202726 55 212 0.0 5.0 0.00 0.00 0.00 84 1015.2
20260901202228 55 218 0.0 5.0 0.00 0.00 0.00 84 1015.0
20260901201727 56 199 0.0 3.0 0.00 0.00 0.00 84 1015.0
20260901201227 56 199 0.0 5.0 0.00 0.00 0.00 85 1014.9
20260901200725 56 200 0.0 5.0 0.00 0.00 0.00 85 1014.8
20260901200225 56 225 0.0 2.0 0.00 0.00 0.00 85 1014.8
20260901195731 56 233 0.0 2.0 0.00 0.00 0.00 85 1014.8
20260901195725 56 235 0.0 2.0 0.00 0.00 0.00 85 1014.8
20260901194724 56 235 0.0 3.0 0.00 0.00 0.00 85 1014.8
20260901194227 56 233 0.0 4.0 0.00 0.00 0.00 85 1014.8
20260901193726 56 216 0.0 4.0 0.00 0.00 0.00 85 1014.8
20260901193225 56 226 0.0 4.0 0.00 0.00 0.00 85 1014.7
20260901192724 56 223 0.0 4.0 0.00 0.00 0.00 85 1014.7
20260901192223 56 198 0.0 1.0 0.00 0.00 0.00 85 1014.7
20260901191722 56 185 0.0 7.0 0.00 0.00 0.00 85 1014.6
20260901191223 56 185 0.0 7.0 0.00 0.00 0.00 85 1014.5
20260901190722 56 226 0.0 3.0 0.00 0.00 0.00 85 1014.5
20260901190223 56 197 0.0 4.0 0.00 0.00 0.00 85 1014.4
20260901185724 56 195 1.0 6.0 0.00 0.00 0.00 85 1014.3
20260901185223 56 257 1.0 6.0 0.00 0.00 0.00 85 1014.3
20260901184728 57 243 1.0 5.0 0.00 0.00 0.00 85 1014.2
20260901184724 56 233 1.0 5.0 0.00 0.00 0.00 85 1014.2
20260901183721 57 224 1.0 4.0 0.00 0.00 0.00 85 1014.1
20260901183220 57 218 1.0 5.0 0.00 0.00 0.00 85 1014.1
20260901182720 57 233 1.0 5.0 0.00 0.00 0.00 85 1014.0
20260901182220 58 222 0.0 5.0 0.00 0.00 0.00 85 1013.9
20260901181720 58 235 1.0 8.0 0.00 0.00 0.00 84 1013.8
20260901181218 58 239 2.0 10.0 0.00 0.00 0.00 84 1013.7
20260901180718 58 237 2.0 10.0 0.00 0.00 0.00 84 1013.6
20260901180218 59 270 2.0 7.0 0.00 0.00 0.00 83 1013.5
20260901175720 59 247 2.0 9.0 0.00 0.00 0.00 82 1013.5
20260901175218 60 220 3.0 9.0 0.00 0.00 0.00 80 1013.4
20260901174719 60 240 3.0 9.0 0.00 0.00 0.00 77 1013.4
20260901174218 61 226 2.0 9.0 0.00 0.00 0.00 75 1013.4
20260901173718 62 224 3.0 8.0 0.00 0.00 0.00 74 1013.2
20260901173218 62 310 3.0 8.0 0.00 0.00 0.00 74 1012.8
20260901172717 62 309 3.0 9.0 0.00 0.00 0.00 73 1012.8
20260901172224 62 306 3.0 9.0 0.00 0.00 0.00 73 1012.8
20260901172218 62 310 4.0 9.0 0.00 0.00 0.00 73 1012.8
20260901171218 62 309 3.0 8.0 0.00 0.00 0.00 73 1012.7
20260901170718 62 321 3.0 8.0 0.00 0.00 0.00 73 1012.8
20260901170218 62 313 4.0 9.0 0.00 0.00 0.00 73 1012.8
20260901165718 62 291 4.0 9.0 0.00 0.00 0.00 73 1012.8
20260901165218 62 341 4.0 9.0 0.00 0.00 0.00 73 1012.9
20260901164724 62 316 3.0 7.0 0.00 0.00 0.00 72 1013.0
20260901164720 62 299 3.0 9.0 0.00 0.00 0.00 73 1012.9
20260901163716 62 303 3.0 7.0 0.00 0.00 0.00 72 1013.0
20260901163218 62 307 3.0 9.0 0.00 0.00 0.00 72 1013.0
20260901162715 62 309 3.0 9.0 0.00 0.00 0.00 72 1013.1
20260901162215 62 315 3.0 6.0 0.00 0.00 0.00 72 1013.1
20260901161714 62 312 3.0 7.0 0.00 0.00 0.00 71 1013.1
20260901161213 62 337 4.0 10.0 0.00 0.00 0.00 71 1013.1
20260901160714 62 303 4.0 10.0 0.00 0.00 0.00 71 1013.2
20260901160215 62 310 4.0 9.0 0.00 0.00 0.00 71 1013.1
20260901160211 62 335 4.0 9.0 0.00 0.00 0.00 71 1013.2
20260901155214 62 305 4.0 9.0 0.00 0.00 0.00 71 1013.2
20260901155208 62 334 3.0 8.0 0.00 0.00 0.00 71 1013.2
20260901154209 62 334 3.0 10.0 0.00 0.00 0.00 71 1013.2
20260901153710 62 359 4.0 10.0 0.00 0.00 0.00 70 1013.2
20260901153208 62 322 4.0 9.0 0.00 0.00 0.00 70 1013.2
20260901152712 63 312 4.0 9.0 0.00 0.00 0.00 70 1013.2
20260901152707 63 325 4.0 8.0 0.00 0.00 0.00 70 1013.1
20260901151708 63 305 3.0 9.0 0.00 0.00 0.00 70 1013.2
20260901151207 63 303 4.0 9.0 0.00 0.00 0.00 69 1013.2